[[{"header":{"parameterUnit":"m.s-1","parameterCategory":1,"la1":30.2991,"la2":30.254,"lo1":-89.0895,"lo2":-89.0444,"dy":0.0017,"dx":0.0017,"nx":28,"ny":28,"refTime":"2025-11-28T03:00:00:Z","depth":0,"parameterNumber":2,"parameterNumberName":"U-component_of_WINDS"},"data":[0,0,0,0,0,0,0,0,0,0,0,0,0,0,0,0,0,0,0,0,0,0,0,0,0,0,0,0,0,0,0,0,0,0,0,0,0,0,0,0,0,0,0,0,0,0,0,0,0,0,0,0,0,0,0,0,0,0,-7.2515,-7.2516,0,-7.257,-7.257,-7.2571,-7.2401,-7.2395,-7.239,-7.2385,-7.2439,-7.2445,-7.2451,0,0,0,0,0,0,0,0,0,0,0,0,0,-7.226,-7.2266,-7.2515,-7.2516,-7.2516,-7.257,-7.257,-7.2571,-7.2402,-7.2395,-7.2389,-7.2383,-7.2437,-7.2444,-7.2452,0,0,0,0,0,0,0,0,0,0,0,0,0,-7.2349,-7.2268,-7.2515,-7.2438,-7.2432,-7.2569,-7.257,-7.2571,-7.2403,-7.2395,-7.2387,-7.238,-7.2434,-7.2444,-7.2453,-7.2666,0,0,-7.2481,-7.2485,0,0,0,0,0,0,0,0,-7.2344,-7.2358,-7.2449,-7.2444,-7.2437,-7.247,-7.25,-7.2603,-7.2405,-7.2414,-7.2385,-7.2376,-7.2456,-7.2463,-7.249,-7.2668,-7.2671,-7.2482,-7.2488,-7.2492,-7.2495,0,0,0,0,0,0,0,-7.2338,-7.2355,-7.2536,-7.245,-7.2443,-7.24,-7.2404,-7.2519,-7.2477,-7.2413,-7.24,-7.2409,-7.2451,-7.2481,-7.249,-7.2671,-7.2482,-7.249,-7.2496,-7.25,-7.3024,-7.3031,0,0,0,0,0,0,-7.2342,-7.2351,-7.2535,-7.2538,-7.2371,-7.2411,-7.2415,-7.2468,-7.2476,-7.247,-7.2416,-7.2401,-7.2469,-7.2479,-7.2491,-7.2737,-7.2492,-7.2501,-7.2506,-7.3015,-7.3025,-7.3034,0,0,0,0,0,0,-7.2338,-7.236,-7.2532,-7.2441,-7.246,-7.2424,-7.2484,-7.2473,-7.2503,-7.2478,-7.247,-7.2455,-7.2463,-7.2478,-7.2623,-7.2737,-7.2505,-7.2513,-7.3006,-7.3018,-7.303,-7.3235,0,0,0,0,0,0,-7.2331,-7.236,-7.2441,-7.2444,-7.2465,-7.2665,-7.2491,-7.2479,-7.252,-7.2501,-7.2512,-7.2507,-7.2458,-7.261,-7.2632,-7.2746,-7.2521,-7.2995,-7.3011,-7.3026,-7.3217,-7.3252,-7.3282,0,0,0,0,0,-7.2322,-7.2497,-7.2446,-7.2469,-7.2567,-7.2672,-7.2684,-7.2625,-7.253,-7.261,-7.2594,-7.2506,-7.2722,-7.2626,-7.265,-7.2768,-7.2987,-7.3007,-7.3025,-7.3203,-7.3246,-7.3282,0,0,0,0,0,0,-7.2507,-7.2496,-7.2439,-7.262,-7.2649,-7.2643,-7.2743,-7.2673,-7.2728,-7.2708,-7.2632,-7.2636,-7.2794,-7.2796,-7.269,-7.2973,-7.2838,-7.2862,-7.2965,-7.3006,-7.3038,-7.3032,-7.2528,0,0,0,0,0,-7.2569,-7.2657,-7.2642,-7.2803,-7.282,-7.278,-7.2824,-7.2776,-7.2802,-7.2812,-7.2807,-7.2834,-7.2907,-7.2957,-7.3024,-7.3218,-7.3216,-7.3311,-7.3344,-7.3371,-7.3391,-7.349,-7.3531,-7.3096,-7.3095,-7.3095,0,0,-7.2698,-7.2702,-7.2762,-7.284,-7.2856,-7.2946,-7.2791,-7.2894,-7.2959,-7.2828,-7.2963,-7.2961,-7.2986,-7.3156,-7.3231,-7.3162,-7.3511,-7.3394,-7.3416,-7.3422,-7.3513,-7.3555,-7.3591,-7.3108,-7.3106,-7.3104,0,0,-7.2977,-7.2991,-7.3125,-7.3144,-7.3171,-7.3143,-7.3176,-7.3181,-7.3174,-7.331,-7.3211,-7.3289,-7.3418,-7.3439,-7.3466,-7.3754,-7.3674,-7.3778,-7.3946,-7.4044,-7.4078,-7.4108,-7.4207,-7.4243,-7.38,-7.38,-7.3801,0,-7.3132,-7.3266,-7.3202,-7.3311,-7.3347,-7.3233,-7.3367,-7.3389,-7.3436,-7.3462,-7.3386,-7.3544,-7.3554,-7.3725,-7.3795,-7.3823,-7.3855,-7.3774,-7.4079,-7.4108,-7.4135,-7.4228,-7.4266,-7.3812,-7.3811,-7.381,-7.3809,0,-7.3453,-7.3548,-7.3652,-7.37,-7.3749,-7.387,-7.3823,-7.3879,-7.3828,-7.3808,-7.3946,-7.3954,-7.4018,-7.4056,-7.4008,-7.4221,-7.4177,-7.4092,-7.3954,-7.419,-7.4275,-7.4311,-7.383,-7.3825,-7.3822,-7.3819,0,0,-7.3848,-7.3859,-7.3898,-7.3917,-7.3939,-7.4009,-7.4125,-7.4189,-7.4236,-7.4274,-7.4366,-7.4478,-7.4398,-7.443,-7.4383,-7.447,-7.4692,-7.4372,-7.4372,-7.4428,-7.4922,-7.4983,-7.5025,-7.4641,-7.4647,-7.4653,-7.4918,0,-7.4119,-7.4316,-7.4262,-7.4458,-7.4542,-7.4436,-7.4536,-7.4559,-7.4544,-7.4612,-7.4595,-7.4673,-7.4565,-7.4583,-7.4664,-7.4648,-7.4789,-7.4628,-7.4723,-7.4727,-7.4715,-7.5071,-7.5136,-7.5386,-7.4952,-7.4958,-7.4962,0,-7.446,-7.451,-7.4715,-7.472,-7.4753,-7.4844,-7.4897,-7.4965,-7.4988,-7.4971,-7.5007,-7.4942,-7.5053,-7.4919,-7.5069,-7.4961,-7.4997,-7.4995,-7.5003,-7.5006,-7.4855,-7.5078,-7.5464,-7.55,-7.5015,-7.5011,-7.5007,0,-7.4722,-7.484,-7.4977,-7.4997,-7.5008,-7.5074,-7.5081,-7.5097,-7.5138,-7.5185,-7.521,-7.527,-7.5301,-7.5348,-7.53,-7.5207,-7.5457,-7.5319,-7.5442,-7.5444,-7.5496,-7.5492,-7.5888,-7.5528,-7.5528,-7.5527,-7.5526,0,-7.5027,-7.5155,-7.5094,-7.5178,-7.5318,-7.5255,-7.5395,-7.539,-7.5405,-7.5485,-7.5398,-7.5474,-7.5409,-7.5479,-7.5443,-7.5571,-7.5587,-7.5574,-7.5562,-7.5579,-7.558,-7.5598,-7.5577,-7.5537,-7.5535,-7.5533,-7.5531,0,-7.534,-7.5305,-7.5446,-7.5445,-7.5448,-7.5551,-7.5549,-7.5625,-7.5604,-7.5706,-7.5726,-7.5693,-7.5771,-7.5729,-7.581,-7.5785,-7.595,-7.5917,-7.5942,-7.5931,-7.6055,-7.6042,-7.6472,-7.6524,-7.6135,-7.6139,-7.6142,0,-7.5535,-7.5631,-7.564,-7.5687,-7.5701,-7.5779,-7.582,-7.5762,-7.5808,-7.5842,-7.5914,-7.5985,-7.6037,-7.6167,-7.6149,-7.621,-7.6174,-7.6321,-7.6182,-7.6196,-7.6171,-7.6163,-7.6171,-7.6347,-7.6352,-7.6356,-7.6359,0,-7.5883,-7.586,-7.5923,-7.5981,-7.6033,-7.6075,-7.611,-7.6153,-7.6096,-7.6153,-7.6231,-7.6273,-7.6355,-7.6425,-7.6477,-7.6483,-7.6411,-7.6403,-7.6434,-7.645,-7.6458,-7.645,-7.6012,-7.6392,-7.6389,-7.6386,-7.6385,-7.6383,-7.6139,-7.6218,-7.6236,-7.6309,-7.6329,-7.6364,-7.6434,-7.6423,-7.6488,-7.6549,-7.6512,-7.6604,-7.6623,-7.6686,-7.6702,-7.6771,-7.6712,-7.6758,-7.6769,-7.678,-7.6794,-7.6452,-7.6781,-7.678,-7.6779,-7.6778,-7.6778,0,-7.6478,-7.6484,-7.6552,-7.6603,-7.666,-7.659,-7.6625,-7.6676,-7.6758,-7.6783,-7.6837,-7.6926,-7.6994,-7.6982,-7.7043,-7.7101,-7.7069,-7.7118,-7.7111,-7.7113,-7.6846,-7.6811,-7.7143,-7.7143,-7.7143,-7.7143,-7.7143,-7.7142,-7.666,-7.6789,-7.6769,-7.6907,-7.6912,-7.7001,-7.7027,-7.7057,-7.7076,-7.718,-7.7236,-7.7228,-7.7237,-7.7298,-7.7356,-7.7351,-7.7375,-7.7436,-7.7418,-7.7168,-7.7132,-7.7097,-7.7063,-7.7443,-7.7443,-7.7678,-7.768,-7.7682]},{"header":{"parameterUnit":"m.s-1","parameterCategory":1,"la1":30.2991,"la2":30.254,"lo1":-89.0895,"lo2":-89.0444,"dy":0.0017,"dx":0.0017,"nx":28,"ny":28,"refTime":"2025-11-28T03:00:00:Z","depth":0,"parameterNumber":3,"parameterNumberName":"V-component_of_WINDS"},"data":[0,0,0,0,0,0,0,0,0,0,0,0,0,0,0,0,0,0,0,0,0,0,0,0,0,0,0,0,0,0,0,0,0,0,0,0,0,0,0,0,0,0,0,0,0,0,0,0,0,0,0,0,0,0,0,0,0,0,0.2311,0.231,0,0.2246,0.2246,0.2245,0.2151,0.2149,0.2148,0.2146,0.208,0.208,0.208,0,0,0,0,0,0,0,0,0,0,0,0,0,0.2353,0.2353,0.2311,0.231,0.2309,0.2247,0.2246,0.2245,0.2151,0.2149,0.2147,0.2145,0.2081,0.208,0.208,0,0,0,0,0,0,0,0,0,0,0,0,0,0.2316,0.2353,0.2311,0.2255,0.2249,0.2247,0.2246,0.2245,0.2152,0.2149,0.2147,0.2145,0.2081,0.208,0.208,0.2127,0,0,0.2079,0.2079,0,0,0,0,0,0,0,0,0.2319,0.2315,0.2264,0.2259,0.2252,0.2204,0.2236,0.2205,0.2152,0.2189,0.2146,0.2143,0.2124,0.212,0.2113,0.2124,0.2121,0.2079,0.2079,0.2079,0.2078,0,0,0,0,0,0,0,0.2321,0.2317,0.2285,0.2263,0.2256,0.2233,0.2225,0.223,0.2171,0.2185,0.2178,0.2172,0.212,0.2114,0.2111,0.212,0.2079,0.2079,0.2078,0.2078,0.2168,0.217,0,0,0,0,0,0,0.2332,0.232,0.2287,0.2283,0.228,0.2234,0.2226,0.2222,0.217,0.216,0.2174,0.2168,0.2115,0.2111,0.2108,0.2161,0.2079,0.2078,0.2078,0.2165,0.2168,0.2171,0,0,0,0,0,0,0.2333,0.233,0.229,0.23,0.2293,0.2236,0.2233,0.2222,0.2216,0.2162,0.2151,0.2179,0.2113,0.2109,0.2123,0.2157,0.2078,0.2078,0.2162,0.2166,0.217,0.2266,0,0,0,0,0,0,0.2335,0.2331,0.2348,0.2301,0.2293,0.2306,0.2235,0.2223,0.2215,0.2206,0.2163,0.2154,0.2111,0.2124,0.2123,0.2155,0.2078,0.2159,0.2164,0.2168,0.226,0.2273,0.2284,0,0,0,0,0,0.2337,0.2378,0.2349,0.2346,0.2313,0.2308,0.2304,0.2254,0.2218,0.2235,0.2201,0.2155,0.2153,0.2127,0.2124,0.2157,0.2156,0.2162,0.2168,0.2254,0.227,0.2284,0,0,0,0,0,0,0.243,0.237,0.2338,0.2365,0.2343,0.2293,0.2312,0.2272,0.2259,0.2252,0.219,0.2181,0.2204,0.2181,0.2153,0.22,0.2148,0.2154,0.2214,0.2229,0.2241,0.2246,0.2077,0,0,0,0,0,0.2454,0.2455,0.2403,0.2432,0.2422,0.237,0.2366,0.2329,0.2303,0.2293,0.226,0.2237,0.2231,0.2228,0.222,0.2256,0.2245,0.2277,0.2289,0.2299,0.2305,0.2324,0.2337,0.219,0.219,0.219,0,0,0.2503,0.2471,0.2475,0.245,0.2428,0.2431,0.2362,0.2368,0.237,0.2294,0.2306,0.2281,0.2251,0.2277,0.2287,0.2259,0.2344,0.2307,0.2315,0.2316,0.2331,0.2345,0.2358,0.2194,0.2193,0.2193,0,0,0.2595,0.257,0.2591,0.2571,0.2539,0.2504,0.251,0.2466,0.2446,0.2457,0.2401,0.2402,0.2393,0.2375,0.2364,0.245,0.2407,0.2448,0.2512,0.2531,0.2543,0.2553,0.2584,0.2596,0.2454,0.2454,0.2455,0,0.266,0.2662,0.2608,0.2618,0.2609,0.254,0.2562,0.2545,0.2512,0.2508,0.2477,0.2465,0.244,0.2461,0.2482,0.2475,0.248,0.2454,0.2545,0.2555,0.2563,0.2593,0.2605,0.246,0.2459,0.2459,0.2458,0,0.2745,0.2747,0.2769,0.2739,0.2732,0.2748,0.2697,0.2696,0.266,0.2629,0.2642,0.2609,0.2594,0.2596,0.2561,0.2612,0.2596,0.2557,0.2503,0.2584,0.2611,0.2621,0.2467,0.2466,0.2464,0.2463,0,0,0.2894,0.2834,0.2843,0.2829,0.2789,0.279,0.2803,0.2788,0.279,0.2769,0.278,0.2774,0.2737,0.2725,0.2687,0.2704,0.2775,0.2662,0.266,0.2685,0.2831,0.2862,0.2876,0.2746,0.2748,0.2749,0.2834,0,0.2978,0.2997,0.2949,0.2981,0.2983,0.2918,0.293,0.2907,0.2878,0.2875,0.2843,0.2841,0.2791,0.2784,0.2797,0.2764,0.2804,0.2757,0.2756,0.2756,0.2767,0.289,0.2923,0.3004,0.2844,0.2846,0.2847,0,0.3079,0.3065,0.3097,0.3056,0.3055,0.3066,0.3049,0.3048,0.3021,0.2998,0.2986,0.2942,0.2952,0.29,0.2914,0.2883,0.288,0.2863,0.2865,0.2864,0.2807,0.2893,0.3028,0.3041,0.2863,0.2861,0.286,0,0.3187,0.3175,0.3193,0.3183,0.3135,0.3145,0.3125,0.3096,0.309,0.3075,0.3071,0.3057,0.305,0.3041,0.2995,0.2961,0.3015,0.2958,0.2997,0.2999,0.3012,0.3012,0.315,0.3008,0.3008,0.3008,0.3008,0,0.3287,0.331,0.3241,0.3252,0.3275,0.3219,0.3244,0.3218,0.3192,0.3198,0.314,0.3147,0.3085,0.3084,0.3048,0.3066,0.3062,0.3045,0.3036,0.3051,0.3054,0.3049,0.3043,0.3011,0.301,0.301,0.3009,0,0.3412,0.3366,0.3381,0.3335,0.3324,0.3344,0.3304,0.3313,0.328,0.3287,0.3286,0.3235,0.3231,0.3184,0.317,0.3145,0.3178,0.3157,0.3188,0.3182,0.3223,0.3221,0.3364,0.338,0.3228,0.3229,0.323,0,0.3479,0.3495,0.345,0.345,0.3433,0.3433,0.3427,0.3373,0.3369,0.334,0.3353,0.3344,0.3335,0.3333,0.3294,0.3284,0.3263,0.3314,0.3261,0.3276,0.3265,0.3265,0.3267,0.3325,0.3327,0.3329,0.333,0,0.3604,0.3581,0.3575,0.3562,0.3556,0.3543,0.3526,0.3529,0.3469,0.3468,0.3464,0.3457,0.3443,0.3436,0.3418,0.3398,0.3355,0.3347,0.3356,0.3372,0.339,0.3382,0.322,0.3344,0.3343,0.3342,0.3341,0.3341,0.3703,0.3715,0.3685,0.3681,0.3662,0.3648,0.3654,0.3622,0.3618,0.3603,0.3571,0.3572,0.3545,0.3517,0.3501,0.3501,0.3475,0.3487,0.349,0.3494,0.3503,0.3389,0.3497,0.3497,0.3496,0.3496,0.3496,0,0.3827,0.3805,0.3801,0.3779,0.3776,0.3735,0.3714,0.3714,0.3716,0.3694,0.3686,0.3682,0.3675,0.3637,0.3625,0.3633,0.3613,0.3632,0.3632,0.3628,0.3527,0.3521,0.3649,0.3649,0.3649,0.3649,0.3649,0.3649,0.389,0.3908,0.3882,0.389,0.3867,0.3869,0.386,0.3847,0.3829,0.3828,0.3822,0.3796,0.3768,0.3755,0.3747,0.3735,0.3735,0.3761,0.3743,0.365,0.3635,0.3621,0.3615,0.3761,0.3761,0.3844,0.3845,0.3846]}]]